Weather History for Faribault, MN

Change the Weather History Date:

Sunday, November 4, 2012

  Actual Average Record
Temperature  
Mean Temperature 38 °F -  
Max Temperature 44 °F 46 °F 74 °F (1975)
Min Temperature 33 °F 27 °F -7 °F (1991)
Degree Days  
Heating Degree Days 26    
Moisture  
Dew Point 36 °F    
Average Humidity 89    
Maximum Humidity 100    
Minimum Humidity 76    
Precipitation  
Precipitation 0.00 in - - ()
Sea Level Pressure  
Sea Level Pressure 30.17 in    
Wind  
Wind Speed 2 mph (East)    
Max Wind Speed 10 mph    
Max Gust Speed -    
Visibility 8 miles    
Events      
Averages and records for this station are not official NWS values.
T = Trace of Precipitation, MM = Missing Value Source: NWS Daily Summary

Daily Weather History Graph

Daily Weather History Graph

Search for Another Location

Airport:

Trip Planner

Search our weather history database for the weather conditions in past years. The results will help you decide how hot, cold, wet, or windy it might be!

Date:

Astronomy

Nov. 04, 2012 Rise Set
Actual Time 6:55 AM CST 4:57 PM CST
Civil Twilight 6:24 AM CST 5:28 PM CST
Nautical Twilight 5:50 AM CST 6:02 PM CST
Astronomical Twilight 5:16 AM CST 6:36 PM CST
Moon 9:34 PM CST (11/4) 11:41 AM CST (11/4)
Length of Visible Light 11h 03m
Length of Day
10h 02m
Waning Gibbous, 72% of the Moon is Illuminated
Nov 4
Waning Gibbous
Nov 6
Last Quarter
Nov 13
New
Nov 20
First Quarter
Nov 28
Full

Hourly Weather History & Observations

Time (CST) Temp. Windchill Dew Point Humidity Pressure Visibility Wind Dir Wind Speed Gust Speed Precip Events Conditions
12:14 AM 37.4 °F - 35.6 °F 93% 30.22 in 10.0 mi Calm Calm - N/A   Light Drizzle
12:34 AM 37.4 °F - 35.6 °F 93% 30.22 in 10.0 mi Calm Calm - N/A   Overcast
12:54 AM 37.4 °F - 35.6 °F 93% 30.22 in 10.0 mi Calm Calm - N/A   Light Drizzle
1:14 AM 35.6 °F - 35.6 °F 100% 30.22 in 7.0 mi Calm Calm - N/A   Light Drizzle
1:34 AM 35.6 °F - 35.6 °F 100% 30.22 in 7.0 mi Calm Calm - N/A   Light Drizzle
1:54 AM 35.6 °F - 33.8 °F 93% 30.21 in 7.0 mi Calm Calm - N/A   Mostly Cloudy
1:14 AM 33.8 °F - 33.8 °F 100% 30.21 in 5.0 mi Calm Calm - N/A   Overcast
1:34 AM 33.8 °F - 33.8 °F 100% 30.21 in 4.0 mi Calm Calm - N/A   Overcast
1:54 AM 33.8 °F - 33.8 °F 100% 30.21 in 4.0 mi Calm Calm - N/A   Overcast
2:14 AM 33.8 °F - 33.8 °F 100% 30.21 in 4.0 mi Calm Calm - N/A   Overcast
2:34 AM 35.6 °F - 35.6 °F 100% 30.21 in 4.0 mi Calm Calm - N/A   Overcast
2:54 AM 33.8 °F - 33.8 °F 100% 30.21 in 4.0 mi Calm Calm - N/A   Overcast
3:14 AM 33.8 °F - 33.8 °F 100% 30.21 in 3.0 mi Calm Calm - N/A   Overcast
3:34 AM 33.8 °F - 33.8 °F 100% 30.21 in 5.0 mi Calm Calm - N/A   Overcast
3:54 AM 33.8 °F - 33.8 °F 100% 30.21 in 4.0 mi Calm Calm - N/A   Overcast
4:14 AM 33.8 °F - 33.8 °F 100% 30.21 in 4.0 mi Calm Calm - N/A   Overcast
4:34 AM 33.8 °F - 33.8 °F 100% 30.21 in 4.0 mi Calm Calm - N/A   Overcast
4:54 AM 33.8 °F - 33.8 °F 100% 30.21 in 5.0 mi Calm Calm - N/A   Overcast
5:14 AM 35.6 °F - 35.6 °F 100% 30.21 in 7.0 mi Calm Calm - N/A   Overcast
5:34 AM 35.6 °F - 35.6 °F 100% 30.21 in 7.0 mi Calm Calm - N/A   Overcast
5:54 AM 35.6 °F - 35.6 °F 100% 30.20 in 7.0 mi Calm Calm - N/A   Overcast
6:14 AM 35.6 °F - 35.6 °F 100% 30.20 in 10.0 mi Calm Calm - N/A   Overcast
6:34 AM 35.6 °F - 35.6 °F 100% 30.20 in 10.0 mi Calm Calm - N/A   Overcast
6:54 AM 35.6 °F - 35.6 °F 100% 30.20 in 10.0 mi Calm Calm - N/A   Overcast
7:14 AM 35.6 °F - 35.6 °F 100% 30.20 in 10.0 mi Calm Calm - N/A   Overcast
7:34 AM 37.4 °F - 35.6 °F 93% 30.20 in 7.0 mi Calm Calm - N/A   Overcast
7:53 AM 37.4 °F - 35.6 °F 93% 30.20 in 7.0 mi Calm Calm - N/A   Overcast
8:14 AM 37.4 °F - 35.6 °F 93% 30.20 in 7.0 mi Calm Calm - N/A   Overcast
8:34 AM 37.4 °F - 35.6 °F 93% 30.20 in 7.0 mi Calm Calm - N/A   Overcast
8:53 AM 37.4 °F - 35.6 °F 93% 30.20 in 7.0 mi Calm Calm - N/A   Overcast
9:14 AM 37.4 °F - 35.6 °F 93% 30.20 in 7.0 mi Calm Calm - N/A   Overcast
9:34 AM 37.4 °F - 35.6 °F 93% 30.20 in 7.0 mi Calm Calm - N/A   Overcast
9:53 AM 37.4 °F - 37.4 °F 100% 30.20 in 7.0 mi Calm Calm - N/A   Overcast
10:14 AM 37.4 °F 34.9 °F 37.4 °F 100% 30.19 in 7.0 mi NE 3.5 mph - N/A   Overcast
10:34 AM 37.4 °F 34.9 °F 37.4 °F 100% 30.19 in 10.0 mi NE 3.5 mph - N/A   Overcast
10:54 AM 39.2 °F 37.0 °F 37.4 °F 93% 30.19 in 10.0 mi ENE 3.5 mph - N/A   Overcast
11:14 AM 39.2 °F - 37.4 °F 93% 30.19 in 5.0 mi Calm Calm - N/A   Overcast
11:34 AM 39.2 °F 37.0 °F 37.4 °F 93% 30.18 in 5.0 mi ENE 3.5 mph - N/A   Overcast
11:54 AM 39.2 °F 37.0 °F 37.4 °F 93% 30.18 in 7.0 mi East 3.5 mph - N/A   Overcast
12:14 PM 39.2 °F 34.2 °F 37.4 °F 93% 30.17 in 7.0 mi East 6.9 mph - N/A   Overcast
12:34 PM 41.0 °F 37.1 °F 37.4 °F 87% 30.16 in 7.0 mi East 5.8 mph - N/A   Overcast
12:54 PM 42.8 °F 39.3 °F 39.2 °F 87% 30.15 in 7.0 mi East 5.8 mph - N/A   Mostly Cloudy
1:14 PM 42.8 °F 38.6 °F 39.2 °F 87% 30.14 in 10.0 mi East 6.9 mph - N/A   Mostly Cloudy
1:34 PM 42.8 °F 39.3 °F 37.4 °F 81% 30.14 in 10.0 mi East 5.8 mph - N/A   Mostly Cloudy
1:54 PM 42.8 °F 38.6 °F 37.4 °F 81% 30.13 in 10.0 mi East 6.9 mph - N/A   Overcast
2:14 PM 44.6 °F 42.2 °F 37.4 °F 76% 30.13 in 10.0 mi East 4.6 mph - N/A   Overcast
2:34 PM 44.6 °F 39.7 °F 37.4 °F 76% 30.12 in 10.0 mi East 9.2 mph - N/A   Overcast
2:54 PM 44.6 °F 40.7 °F 37.4 °F 76% 30.12 in 10.0 mi East 6.9 mph - N/A   Overcast
3:13 PM 44.6 °F 40.7 °F 37.4 °F 76% 30.12 in 10.0 mi East 6.9 mph - N/A   Overcast
3:34 PM 44.6 °F 42.2 °F 37.4 °F 76% 30.12 in 10.0 mi East 4.6 mph - N/A   Overcast
3:54 PM 44.6 °F 41.4 °F 37.4 °F 76% 30.12 in 10.0 mi East 5.8 mph - N/A   Overcast
4:14 PM 44.6 °F 43.1 °F 37.4 °F 76% 30.12 in 10.0 mi East 3.5 mph - N/A   Overcast
4:34 PM 44.6 °F 41.4 °F 37.4 °F 76% 30.12 in 10.0 mi ENE 5.8 mph - N/A   Overcast
4:54 PM 44.6 °F 42.2 °F 37.4 °F 76% 30.12 in 10.0 mi East 4.6 mph - N/A   Overcast
5:14 PM 44.6 °F 40.7 °F 37.4 °F 76% 30.12 in 10.0 mi East 6.9 mph - N/A   Overcast
5:34 PM 44.6 °F 41.4 °F 37.4 °F 76% 30.12 in 10.0 mi East 5.8 mph - N/A   Overcast
5:54 PM 44.6 °F 41.4 °F 37.4 °F 76% 30.12 in 10.0 mi East 5.8 mph - N/A   Overcast
6:14 PM 44.6 °F 41.4 °F 37.4 °F 76% 30.13 in 10.0 mi East 5.8 mph - N/A   Overcast
6:34 PM 42.8 °F 38.6 °F 37.4 °F 81% 30.13 in 10.0 mi East 6.9 mph - N/A   Overcast
6:54 PM 42.8 °F 38.0 °F 37.4 °F 81% 30.13 in 10.0 mi East 8.1 mph - N/A   Overcast
7:14 PM 42.8 °F 38.6 °F 37.4 °F 81% 30.13 in 10.0 mi East 6.9 mph - N/A   Overcast
7:34 PM 42.8 °F 38.0 °F 37.4 °F 81% 30.13 in 10.0 mi ESE 8.1 mph - N/A   Overcast
7:54 PM 42.8 °F 39.3 °F 37.4 °F 81% 30.13 in 10.0 mi East 5.8 mph - N/A   Overcast
8:13 PM 42.8 °F 38.0 °F 37.4 °F 81% 30.13 in 10.0 mi ESE 8.1 mph - N/A   Overcast
8:34 PM 42.8 °F 38.0 °F 37.4 °F 81% 30.13 in 10.0 mi ESE 8.1 mph - N/A   Overcast
8:54 PM 42.8 °F 38.6 °F 37.4 °F 81% 30.13 in 10.0 mi ESE 6.9 mph - N/A   Overcast
9:14 PM 42.8 °F 38.0 °F 37.4 °F 81% 30.13 in 10.0 mi ESE 8.1 mph - N/A   Overcast
9:34 PM 42.8 °F 37.5 °F 37.4 °F 81% 30.13 in 10.0 mi ESE 9.2 mph - N/A   Overcast
9:54 PM 42.8 °F 37.5 °F 37.4 °F 81% 30.13 in 7.0 mi ESE 9.2 mph - N/A   Overcast
10:14 PM 42.8 °F 37.0 °F 37.4 °F 81% 30.13 in 10.0 mi ESE 10.4 mph - N/A   Overcast
10:34 PM 42.8 °F 37.5 °F 37.4 °F 81% 30.12 in 7.0 mi ESE 9.2 mph - N/A   Overcast
10:54 PM 42.8 °F 38.0 °F 37.4 °F 81% 30.12 in 7.0 mi ESE 8.1 mph - N/A   Overcast